Home   Weather   Samarkand   Past weeks

Flag for Uzbekistan Past Weather in Samarkand, Uzbekistan — Yesterday and Last 2 Weeks

Now
61 °F

Scattered clouds.


Feels Like: 61 °F
Forecast: 44 / 63 °F
Wind: 5 mph from East

Location: Samarkand

Current Time: Dec 3, 2016 at 11:52:55 am

Latest Report: Dec 3, 2016 at 11:00 am


Visibility: N/A

Pressure: 30.04 "Hg (27.59 "Hg at 721m altitude)

Humidity: 36%

Dew Point: 34 °F

Location of SamarkandLocation

Past Weather in Samarkand — Graph

°F

Samarkand Temperature Yesterday

Maximum temperature yesterday: 64 °F (at 2:30 pm)
Minimum temperature yesterday: 48 °F (at 1:00 am)
Average temperature yesterday: 54 °F

High & Low Weather Summary for the Past Weeks

 TemperatureHumidityPressure
High66 °F (Nov 18, 2:00 pm)100% (Nov 20, 9:30 pm)30.66 "Hg (Nov 20, 9:30 pm)
Low12 °F (Nov 26, 9:00 am)18% (Dec 1, 12:30 pm)29.92 "Hg (Dec 3, 5:00 am)
Average34 °F63%30.34 "Hg
* Reported Nov 18 10:00 am — Dec 3 10:00 am, Samarkand, Weather by CustomWeather, © 2016

Note: Actual official high and low records may vary slightly from our data, if they occured in-between our weather recording intervals... More about our weather records

Advertising

Samarkand Weather History for the Previous 24 Hours

Scroll right to see more
 ConditionsComfort  
Time TempWeatherWind HumidityBarometerVisibility
10:00 am
Sat, Dec 3
59 °FScattered clouds.6 mph36%30.04 "HgN/A
9:30 am57 °FPartly sunny.3 mph41%30.04 "HgN/A
9:00 am55 °FScattered clouds.1 mph41%30.01 "HgN/A
8:30 am55 °FScattered clouds.1 mph41%30.01 "HgN/A
8:00 am54 °FScattered clouds.No wind44%30.01 "HgN/A
7:30 am55 °FPassing clouds.2 mph41%29.98 "HgN/A
7:00 am59 °FClear.3 mph31%29.95 "Hg4 mi
6:30 am61 °FClear.5 mph27%29.95 "Hg4 mi
6:00 am61 °FClear.10 mph29%29.95 "Hg4 mi
5:30 am59 °FClear.6 mph31%29.95 "Hg4 mi
5:00 am61 °FClear.8 mph27%29.92 "Hg4 mi
4:30 am61 °FClear.8 mph25%29.95 "Hg4 mi
4:00 am61 °FClear.8 mph25%29.95 "Hg4 mi
3:30 am61 °FClear.9 mph23%29.95 "Hg4 mi
3:00 am63 °FClear.12 mph20%29.95 "Hg4 mi
2:30 am61 °FClear.10 mph23%29.95 "Hg4 mi
2:00 am57 °FClear.6 mph27%29.95 "Hg4 mi
1:30 am57 °FClear.6 mph29%29.95 "Hg4 mi
1:00 am57 °FClear.9 mph29%29.98 "Hg4 mi
12:30 am55 °FClear.8 mph31%29.98 "Hg4 mi
12:00 am55 °FClear.7 mph31%29.98 "Hg4 mi
11:30 pm
Fri, Dec 2
59 °FClear.12 mph25%29.98 "Hg4 mi
11:00 pm57 °FClear.12 mph31%29.98 "Hg4 mi
10:30 pm55 °FClear.7 mph33%29.98 "Hg4 mi
10:00 pm54 °FClear.7 mph38%30.01 "Hg4 mi
9:30 pm52 °FClear.7 mph44%30.01 "Hg4 mi
9:00 pm52 °FClear.5 mph41%30.01 "Hg4 mi
8:30 pm54 °FClear.7 mph35%30.01 "Hg4 mi
8:00 pm52 °FClear.3 mph41%30.04 "Hg4 mi
7:30 pm54 °FClear.6 mph35%30.04 "Hg4 mi
7:00 pm54 °FClear.7 mph38%30.04 "Hg4 mi
6:30 pm54 °FClear.5 mph41%30.04 "Hg4 mi
6:00 pm55 °FClear.7 mph41%30.04 "Hg4 mi
5:30 pm52 °FClear.1 mph62%30.04 "Hg4 mi
5:00 pm54 °FClear.5 mph58%30.04 "Hg4 mi
4:30 pm55 °FClear.2 mph55%30.07 "HgN/A
4:00 pm59 °FClear.5 mph51%30.04 "HgN/A
3:30 pm61 °FClear.2 mph39%30.04 "HgN/A
3:00 pm61 °FClear.3 mph39%30.04 "HgN/A
2:30 pm64 °FClear.5 mph24%30.07 "HgN/A
2:00 pm63 °FClear.9 mph25%30.07 "HgN/A
1:30 pm63 °FClear.3 mph30%30.09 "HgN/A
1:00 pm61 °FClear.5 mph39%30.09 "HgN/A
12:30 pm59 °FClear.2 mph39%30.12 "HgN/A
12:00 pm57 °FClear.1 mph41%30.12 "HgN/A
11:30 am55 °FClear.2 mph38%30.12 "HgN/A
11:00 am54 °FClear.3 mph44%30.12 "HgN/A
Weather by CustomWeather, © 2016

See weather overviewHow to use our weather pages